Weather History for Goshen, IN

Change the Weather History Date:

Tuesday, December 11, 2012

  Actual Average Record
Temperature  
Mean Temperature 30 °F -  
Max Temperature 32 °F 36 °F 60 °F (1949)
Min Temperature 26 °F 22 °F -8 °F (1977)
Degree Days  
Heating Degree Days 36    
Moisture  
Dew Point 25 °F    
Average Humidity 83    
Maximum Humidity 93    
Minimum Humidity 64    
Precipitation  
Precipitation 0.00 in - - ()
Sea Level Pressure  
Sea Level Pressure 30.00 in    
Wind  
Wind Speed 9 mph (WSW)    
Max Wind Speed 18 mph    
Max Gust Speed 23 mph    
Visibility 6 miles    
Events Snow    
Averages and records for this station are not official NWS values.
T = Trace of Precipitation, MM = Missing Value Source: NWS Daily Summary

Daily Weather History Graph

Daily Weather History Graph

Search for Another Location

Airport:

Trip Planner

Search our weather history database for the weather conditions in past years. The results will help you decide how hot, cold, wet, or windy it might be!

Date:

Astronomy

Dec. 11, 2012 Rise Set
Actual Time 7:59 AM EST 5:13 PM EST
Civil Twilight 7:28 AM EST 5:44 PM EST
Nautical Twilight 6:53 AM EST 6:19 PM EST
Astronomical Twilight 6:20 AM EST 6:53 PM EST
Moon 5:53 AM EST (12/11) 3:52 PM EST (12/11)
Length of Visible Light 10h 16m
Length of Day
9h 13m
Waning Crescent, 4% of the Moon is Illuminated
Dec 11
Waning Crescent
Dec 13
New
Dec 20
First Quarter
Dec 28
Full
Jan 4
Last Quarter

Hourly Weather History & Observations

Time (EST) Temp. Windchill Dew Point Humidity Pressure Visibility Wind Dir Wind Speed Gust Speed Precip Events Conditions
12:15 AM 32.0 °F 24.2 °F 30.2 °F 93% 29.89 in 6.0 mi West 9.2 mph - 0.00 in Snow Light Snow
12:27 AM 32.0 °F 24.8 °F 30.2 °F 93% 29.90 in 4.0 mi WSW 8.1 mph - 0.00 in Snow Light Snow
12:37 AM 32.0 °F 24.2 °F 30.2 °F 93% 29.90 in 3.0 mi West 9.2 mph - 0.00 in Snow Light Snow
12:50 AM 32.0 °F 24.8 °F 30.2 °F 93% 29.90 in 3.0 mi West 8.1 mph - 0.00 in Snow Light Snow
12:53 AM 32.0 °F 24.8 °F 30.0 °F 92% 29.92 in 3.0 mi West 8.1 mph - 0.00 in Snow Light Snow
12:57 AM 32.0 °F 25.6 °F 30.2 °F 93% 29.89 in 2.0 mi WNW 6.9 mph - 0.00 in Snow Light Snow
12:59 AM 32.0 °F 26.4 °F 30.2 °F 93% 29.89 in 2.0 mi NW 5.8 mph - 0.00 in Snow Light Snow
1:17 AM 30.2 °F 25.4 °F 28.4 °F 93% 29.89 in 3.0 mi North 4.6 mph - 0.00 in Snow Light Snow
1:28 AM 30.2 °F 25.4 °F 28.4 °F 93% 29.89 in 2.5 mi North 4.6 mph - 0.00 in Snow Light Snow
1:51 AM 30.2 °F - 28.4 °F 93% 29.89 in 5.0 mi Calm Calm - 0.00 in Snow Light Snow
1:53 AM 30.9 °F - 28.0 °F 89% 29.92 in 5.0 mi Calm Calm - 0.00 in Snow Light Snow
2:53 AM 32.0 °F 25.6 °F 28.9 °F 88% 29.94 in 5.0 mi WSW 6.9 mph - 0.00 in Snow Light Snow
3:53 AM 30.9 °F 21.2 °F 28.0 °F 89% 29.96 in 2.5 mi WSW 12.7 mph - 0.00 in Snow Light Snow
4:11 AM 30.2 °F 20.2 °F 28.4 °F 93% 29.94 in 1.8 mi WSW 12.7 mph - 0.00 in Snow Light Snow
4:23 AM 30.2 °F 20.8 °F 28.4 °F 93% 29.94 in 1.0 mi WSW 11.5 mph - 0.00 in Snow Light Snow
4:28 AM 30.2 °F 20.8 °F 28.4 °F 93% 29.94 in 0.8 mi WSW 11.5 mph - 0.00 in Snow Light Snow
4:38 AM 30.2 °F 21.3 °F 26.6 °F 86% 29.94 in 1.0 mi WSW 10.4 mph - 0.00 in Snow Light Snow
4:49 AM 30.2 °F 21.9 °F 26.6 °F 86% 29.94 in 3.0 mi WSW 9.2 mph - 0.00 in Snow Light Snow
4:53 AM 30.0 °F 22.4 °F 27.0 °F 88% 29.97 in 4.0 mi WSW 8.1 mph - 0.00 in Snow Light Snow
5:12 AM 30.2 °F 21.9 °F 24.8 °F 80% 29.94 in 9.0 mi WSW 9.2 mph - 0.00 in   Overcast
5:53 AM 28.0 °F 19.3 °F 23.0 °F 81% 29.99 in 10.0 mi WSW 9.2 mph - 0.00 in   Partly Cloudy
6:53 AM 27.0 °F 19.5 °F 21.9 °F 81% 30.01 in 9.0 mi SW 6.9 mph - N/A   Clear
7:53 AM 28.0 °F 20.8 °F 24.1 °F 85% 30.04 in 7.0 mi WSW 6.9 mph - N/A   Overcast
8:53 AM 28.9 °F 20.4 °F 25.0 °F 85% 30.05 in 5.0 mi SW 9.2 mph - N/A   Overcast
9:53 AM 30.0 °F 21.7 °F 25.0 °F 82% 30.06 in 5.0 mi SW 9.2 mph - N/A   Haze
10:53 AM 30.0 °F 23.2 °F 24.1 °F 79% 30.08 in 7.0 mi SW 6.9 mph - N/A   Mostly Cloudy
11:51 AM 30.2 °F 20.2 °F 21.2 °F 69% 30.05 in 9.0 mi SW 12.7 mph - N/A   Mostly Cloudy
11:53 AM 30.0 °F 20.0 °F 21.9 °F 72% 30.08 in 10.0 mi WSW 12.7 mph - N/A   Mostly Cloudy
12:53 PM 30.0 °F 20.5 °F 23.0 °F 75% 30.08 in 10.0 mi WSW 11.5 mph - N/A   Mostly Cloudy
1:53 PM 32.0 °F 22.5 °F 21.9 °F 66% 30.07 in 10.0 mi SW 12.7 mph - N/A   Scattered Clouds
2:53 PM 32.0 °F 20.5 °F 21.0 °F 64% 30.06 in 10.0 mi SSW 18.4 mph 23.0 mph N/A   Partly Cloudy
3:53 PM 32.0 °F 22.5 °F 21.9 °F 66% 30.07 in 10.0 mi SW 12.7 mph - N/A   Partly Cloudy
4:53 PM 32.0 °F 22.1 °F 21.0 °F 64% 30.08 in 10.0 mi SW 13.8 mph - N/A   Clear
5:53 PM 30.0 °F 21.7 °F 21.0 °F 69% 30.10 in 10.0 mi South 9.2 mph - N/A   Clear
7:53 PM 28.9 °F 21.9 °F 21.9 °F 75% 30.12 in 10.0 mi SSW 6.9 mph - N/A   Clear
8:53 PM 28.0 °F 20.8 °F 21.0 °F 75% 30.15 in 10.0 mi SW 6.9 mph - N/A   Clear
9:53 PM 27.0 °F 19.5 °F 21.0 °F 78% 30.16 in 10.0 mi SSW 6.9 mph - N/A   Clear
10:53 PM 28.0 °F 19.3 °F 21.0 °F 75% 30.18 in 10.0 mi SW 9.2 mph - N/A   Clear
11:53 PM 26.1 °F 18.4 °F 21.0 °F 81% 30.19 in 10.0 mi SW 6.9 mph - N/A   Clear